• In Österreich
  • Länderverzeichnis
  • Für 7 Tage
  • Wassertemperatur
  • Satellitenkarten
  • Wetterkarte
  • News
  • Widgets
  • user-avatar
    Anmelden

    Stündliche Wetter Kleszczewo

    Heute, 22 Juli, Sonntag

    Zeit Temperatur Niederschläge Wind Luftdruck Luftfeuchtigkeit
    00:00 +18°C° 0 mm 1 m/S 751 mmHg 79%
    01:00 +18°C° 0 mm 1 m/S 751 mmHg 82%
    02:00 +16°C° 0 mm 1 m/S 751 mmHg 83%
    03:00 +16°C° 0 mm 1 m/S 751 mmHg 84%
    04:00 +16°C° 0 mm 1 m/S 751 mmHg 85%
    05:00 +18°C° 0 mm 1 m/S 751 mmHg 80%
    06:00 +19°C° 0 mm 1 m/S 751 mmHg 75%
    07:00 +20°C° 0 mm 1 m/S 751 mmHg 70%
    08:00 +22°C° 0 mm 1 m/S 751 mmHg 63%
    09:00 +23°C° 0 mm 2 m/S 751 mmHg 56%
    10:00 +25°C° 0 mm 2 m/S 751 mmHg 49%
    11:00 +26°C° 0 mm 2 m/S 751 mmHg 46%
    12:00 +27°C° 0 mm 2 m/S 751 mmHg 42%
    13:00 +28°C° 0 mm 2 m/S 751 mmHg 39%
    14:00 +28°C° 0 mm 2 m/S 751 mmHg 39%
    15:00 +28°C° 0 mm 2 m/S 751 mmHg 40%
    16:00 +28°C° 0 mm 2 m/S 751 mmHg 40%
    17:00 +27°C° 0 mm 2 m/S 751 mmHg 46%
    18:00 +26°C° 0 mm 2 m/S 751 mmHg 51%
    19:00 +25°C° 0 mm 1 m/S 751 mmHg 57%
    20:00 +24°C° 0 mm 1 m/S 751 mmHg 61%
    21:00 +22°C° 0 mm 1 m/S 751 mmHg 65%
    22:00 +21°C° 0 mm 1 m/S 751 mmHg 69%
    23:00 +20°C° 0 mm 1 m/S 751 mmHg 71%

    Morgen, 23 Juli, Montag

    Zeit Temperatur Niederschläge Wind Luftdruck Luftfeuchtigkeit
    00:00 +20°C° 0 mm 1 m/S 752 mmHg 73%
    01:00 +20°C° 0 mm 1 m/S 752 mmHg 75%
    02:00 +17°C° 0 mm 0 m/S 752 mmHg 77%
    03:00 +17°C° 0 mm 0 m/S 752 mmHg 78%
    04:00 +17°C° 0 mm 0 m/S 752 mmHg 80%
    05:00 +18°C° 0 mm 0 m/S 752 mmHg 75%
    06:00 +20°C° 0 mm 0 m/S 752 mmHg 71%
    07:00 +21°C° 0 mm 0 m/S 752 mmHg 66%
    08:00 +25°C° 0 mm 1 m/S 752 mmHg 61%
    09:00 +26°C° 0 mm 1 m/S 753 mmHg 55%
    10:00 +28°C° 0 mm 1 m/S 753 mmHg 49%
    11:00 +28°C° 0 mm 2 m/S 753 mmHg 47%
    12:00 +29°C° 0 mm 2 m/S 752 mmHg 46%
    13:00 +29°C° 0 mm 2 m/S 752 mmHg 44%
    14:00 +29°C° 0 mm 2 m/S 752 mmHg 45%
    15:00 +29°C° 0 mm 3 m/S 752 mmHg 46%
    16:00 +28°C° 0 mm 3 m/S 752 mmHg 48%
    17:00 +27°C° 0 mm 3 m/S 752 mmHg 53%
    18:00 +26°C° 0 mm 3 m/S 752 mmHg 58%
    19:00 +25°C° 0 mm 2 m/S 753 mmHg 63%
    20:00 +24°C° 0 mm 2 m/S 753 mmHg 70%
    21:00 +21°C° 0 mm 2 m/S 753 mmHg 77%
    22:00 +20°C° 0 mm 2 m/S 754 mmHg 83%
    23:00 +19°C° 0 mm 2 m/S 754 mmHg 85%

    übermorgen, 24 Juli, Dienstag

    Zeit Temperatur Niederschläge Wind Luftdruck Luftfeuchtigkeit
    00:00 +20°C° 0 mm 1 m/S 753 mmHg 87%
    01:00 +19°C° 0 mm 1 m/S 753 mmHg 89%
    02:00 +19°C° 0 mm 1 m/S 753 mmHg 89%
    03:00 +18°C° 0 mm 1 m/S 754 mmHg 90%
    04:00 +18°C° 0 mm 1 m/S 754 mmHg 91%
    05:00 +19°C° 0 mm 1 m/S 754 mmHg 85%
    06:00 +21°C° 0 mm 1 m/S 754 mmHg 79%
    07:00 +22°C° 0 mm 1 m/S 754 mmHg 73%
    08:00 +24°C° 0 mm 2 m/S 754 mmHg 68%
    09:00 +25°C° 0 mm 2 m/S 754 mmHg 62%
    10:00 +27°C° 0 mm 2 m/S 754 mmHg 56%
    11:00 +27°C° 0,2 mm 2 m/S 754 mmHg 55%
    12:00 +28°C° 0,2 mm 2 m/S 753 mmHg 54%
    13:00 +29°C° 0,2 mm 2 m/S 753 mmHg 53%
    14:00 +29°C° 0,7 mm 3 m/S 753 mmHg 55%
    15:00 +28°C° 0,7 mm 3 m/S 753 mmHg 58%
    16:00 +28°C° 0,7 mm 3 m/S 752 mmHg 60%
    17:00 +27°C° 0,3 mm 3 m/S 752 mmHg 66%
    18:00 +26°C° 0,3 mm 2 m/S 752 mmHg 71%
    19:00 +25°C° 0,3 mm 2 m/S 752 mmHg 77%
    20:00 +24°C° 0 mm 2 m/S 753 mmHg 81%
    21:00 +23°C° 0 mm 2 m/S 753 mmHg 85%
    22:00 +20°C° 0 mm 2 m/S 753 mmHg 90%
    23:00 +20°C° 0 mm 2 m/S 753 mmHg 91%

    25 Juli, Mittwoch

    Zeit Temperatur Niederschläge Wind Luftdruck Luftfeuchtigkeit
    00:00 +19°C° 0 mm 2 m/S 753 mmHg 92%
    01:00 +20°C° 0 mm 1 m/S 753 mmHg 93%
    02:00 +19°C° 0 mm 1 m/S 753 mmHg 93%
    03:00 +19°C° 0 mm 1 m/S 753 mmHg 94%
    04:00 +19°C° 0 mm 1 m/S 753 mmHg 94%
    05:00 +20°C° 0 mm 1 m/S 753 mmHg 88%
    06:00 +21°C° 0 mm 1 m/S 754 mmHg 83%
    07:00 +23°C° 0 mm 1 m/S 754 mmHg 77%
    08:00 +24°C° 0,1 mm 1 m/S 754 mmHg 70%
    09:00 +26°C° 0,1 mm 2 m/S 754 mmHg 63%
    10:00 +28°C° 0,1 mm 2 m/S 754 mmHg 56%
    11:00 +28°C° 0,2 mm 2 m/S 754 mmHg 54%
    12:00 +29°C° 0,2 mm 3 m/S 753 mmHg 51%
    13:00 +30°C° 0,2 mm 3 m/S 753 mmHg 48%
    14:00 +30°C° 0 mm 3 m/S 753 mmHg 47%
    15:00 +30°C° 0 mm 3 m/S 753 mmHg 47%
    16:00 +30°C° 0 mm 3 m/S 753 mmHg 46%
    17:00 +29°C° 0 mm 3 m/S 753 mmHg 51%
    18:00 +28°C° 0 mm 3 m/S 753 mmHg 56%
    19:00 +27°C° 0 mm 2 m/S 753 mmHg 62%
    20:00 +26°C° 0 mm 2 m/S 753 mmHg 67%
    21:00 +24°C° 0 mm 2 m/S 754 mmHg 72%
    22:00 +23°C° 0 mm 2 m/S 754 mmHg 78%
    23:00 +21°C° 0 mm 2 m/S 754 mmHg 79%

    26 Juli, Donnerstag

    Zeit Temperatur Niederschläge Wind Luftdruck Luftfeuchtigkeit
    00:00 +20°C° 0 mm 2 m/S 754 mmHg 81%
    01:00 +19°C° 0 mm 2 m/S 754 mmHg 82%
    02:00 +19°C° 0 mm 2 m/S 754 mmHg 84%
    03:00 +19°C° 0 mm 2 m/S 754 mmHg 85%
    04:00 +19°C° 0 mm 1 m/S 754 mmHg 87%
    05:00 +19°C° 0 mm 2 m/S 755 mmHg 82%
    06:00 +21°C° 0 mm 2 m/S 755 mmHg 77%
    07:00 +23°C° 0 mm 2 m/S 755 mmHg 72%
    08:00 +25°C° 0 mm 2 m/S 755 mmHg 64%
    09:00 +26°C° 0 mm 2 m/S 755 mmHg 56%
    10:00 +28°C° 0 mm 2 m/S 755 mmHg 48%
    11:00 +29°C° 0 mm 2 m/S 755 mmHg 45%
    12:00 +30°C° 0 mm 2 m/S 755 mmHg 41%
    13:00 +31°C° 0 mm 2 m/S 755 mmHg 37%
    14:00 +31°C° 0 mm 3 m/S 755 mmHg 37%
    15:00 +31°C° 0 mm 3 m/S 755 mmHg 37%
    16:00 +31°C° 0 mm 3 m/S 754 mmHg 38%
    17:00 +30°C° 0 mm 3 m/S 754 mmHg 44%
    18:00 +29°C° 0 mm 3 m/S 755 mmHg 51%
    19:00 +27°C° 0 mm 2 m/S 755 mmHg 58%
    20:00 +26°C° 0 mm 2 m/S 755 mmHg 63%
    21:00 +25°C° 0 mm 3 m/S 755 mmHg 69%
    22:00 +22°C° 0 mm 3 m/S 755 mmHg 74%
    23:00 +23°C° 0 mm 2 m/S 755 mmHg 77%

    27 Juli, Freitag

    Zeit Temperatur Niederschläge Wind Luftdruck Luftfeuchtigkeit
    00:00 +21°C° 0 mm 2 m/S 755 mmHg 80%
    01:00 +20°C° 0 mm 2 m/S 755 mmHg 83%
    02:00 +20°C° 0 mm 2 m/S 755 mmHg 85%
    03:00 +19°C° 0 mm 2 m/S 755 mmHg 86%
    04:00 +19°C° 0 mm 2 m/S 755 mmHg 87%
    05:00 +20°C° 0 mm 2 m/S 755 mmHg 81%
    06:00 +21°C° 0 mm 2 m/S 755 mmHg 75%
    07:00 +23°C° 0 mm 2 m/S 755 mmHg 70%
    08:00 +25°C° 0 mm 2 m/S 755 mmHg 62%
    09:00 +26°C° 0 mm 2 m/S 755 mmHg 55%
    10:00 +28°C° 0 mm 2 m/S 755 mmHg 47%
    11:00 +29°C° 0 mm 2 m/S 755 mmHg 45%
    12:00 +30°C° 0 mm 2 m/S 754 mmHg 42%
    13:00 +31°C° 0 mm 2 m/S 754 mmHg 40%
    14:00 +31°C° 0 mm 3 m/S 754 mmHg 41%
    15:00 +31°C° 0 mm 3 m/S 754 mmHg 42%
    16:00 +31°C° 0 mm 3 m/S 753 mmHg 43%
    17:00 +30°C° 0 mm 3 m/S 753 mmHg 50%
    18:00 +29°C° 0 mm 2 m/S 753 mmHg 57%
    19:00 +28°C° 0 mm 2 m/S 753 mmHg 64%
    20:00 +26°C° 0,1 mm 2 m/S 753 mmHg 71%
    21:00 +25°C° 0,1 mm 2 m/S 753 mmHg 77%
    22:00 +24°C° 0,1 mm 2 m/S 754 mmHg 84%
    23:00 +23°C° 0 mm 2 m/S 754 mmHg 86%
    Mehr zeigen